INTELSAT 29E (IS-29E) (41308 NORAD) Tracking and Keplerian Element Data

This shows tracking and keplerian element data for the satellite.

Feedback or suggestion? Click here.




ElementValue
Catalog41308
NameINTELSAT 29E (IS-29E)
Epoch Orbit1308
Epoch Day221.95714201
Epoch Year2019
RAAN98.2102
Inclination0.3086
Eccentricity0.0022943
Argument of Perigee314.5667
Mean Anonmoly343.8279
Mean Motion1.00609966
Decay Rate-3.31E-06
L11 41308U 16004A 19221.95714201 -.00000331 00000-0 00000-0 0 9999
L22 41308 0.3086 98.2102 0022943 314.5667 343.8279 1.00609966 13084



Live tracking and technical data element details for INTELSAT 29E (IS-29E) (NORAD 41308). INTELSAT 29E (IS-29E) can be tracked NOW for your location showing map with azimuth and elevation plus other details from your city location.







IsCatalogInMostPopularTable: catalog: 41308, numindb: 1151
Update: records affected: 1



GetName: 41308 INTELSAT 29E (IS-29E)

Hit Count: updated at: Tue, 17 Sep 2024 13:22:25 GMT